Location: Ladrillo (historical)
(32.8195°N, 117.2231°W)
Time: 08:19:44
(UTC+00:00)

FO-99 - Pass Details

Date: 17 April 2021
Orbit: 472 x 506 km, 97.2° (Epoch: 09 May)

Event Time Altitude Azimuth Distance (km) Brightness Sun altitude
Exits shadow 04:45:55 19° 257° (WSW) 1,251 ? -28.6°
Maximum altitude 04:46:16 19° 265° (W) 1,242 ? -28.6°
Drops below altitude 10° 04:49:00 10° 312° (NW) 1,721 ? -29.1°
Sets 04:51:33 0° 330° (NNW) 2,611 ? -29.5°
